Location: Newark
(44.3248°N, 23.7839°E)
Time: 23:08:06
(UTC+00:00)

PCSat - Pass Details

Date: 17 April 2024
Orbit: 783 x 792 km, 67.1° (Epoch: 21 May)

Event Time Altitude Azimuth Distance (km) Brightness Sun altitude
Rises 20:03:23 0° 249° (WSW) 3,273 13.0 -26.2°
Reaches altitude 10° 20:06:13 10° 263° (W) 2,349 12.4 -26.6°
Maximum altitude 20:10:35 25° 317° (NW) 1,570 11.8 -27.0°
Drops below altitude 10° 20:14:59 10° 11° (NNE) 2,364 12.5 -27.5°
Sets 20:17:51 0° 25° (NNE) 3,298 13.2 -27.8°
